Preview of NWS' New Version of Forecast
This preview is not operational and should not be used for support decisions.

Regional Weather Roundup (RWR)

Issued by National Weather Service (NWS)

                            
000
ASUS43 KDMX 191801
RWRIA 

WEATHER ROUNDUP FOR IOWA
NATIONAL WEATHER SERVICE DES MOINES IA
1200 PM CST TUE FEB 19 2019

NOTE: "FAIR" INDICATES FEW OR NO CLOUDS BELOW 12,000 FEET WITH NO
SIGNIFICANT WEATHER AND/OR OBSTRUCTIONS TO VISIBILITY.

* - THESE STATIONS ARE NOT NWS STATIONS...THUS NOT UNDER NWS
QUALITY CONTROL.  THEY ALSO DO NOT REPORT WEATHER SUCH 
AS PRECIPITATION OR FOG.  

IAZ001>003-012>014-020>022-031>034-043>046-191900-
   NORTHWEST IOWA
  
CITY           SKY/WX    TMP DP  RH WIND       PRES   REMARKS
CARROLL *      CLOUDY     5   5 100 E7        30.47F FOG     WCI  -7  
CHEROKEE *     MOSUNNY   13  11  92 SE8       30.47F WCI   2          
DENISON *      CLOUDY    14   7  73 E10       30.46F WCI   1          
LE MARS *      CLOUDY     9   7  92 SE8       30.45F WCI  -4          
ORANGE CITY *  SUNNY     12  10  92 SE7       30.44F WCI   2          
SHELDON *      SUNNY     12  12 100 SE7       30.43F WCI   2          
SIOUX CITY     CLOUDY    10   4  76 E7        30.46F WCI  -1          
6HR MIN TEMP:  -8; 6HR MAX TEMP:  10;                                

SPENCER        CLOUDY    17   4  56 CALM      30.46F                  
6HR MIN TEMP:  -8; 6HR MAX TEMP:  17; 6HR PCP: TRACE;                

STORM LAKE *   SUNNY      9   9 100 SE8G15    30.44F WCI  -4          
$$
 
IAZ055>058-069>071-079>083-090>094-191900-
   SOUTHWEST IOWA
  
CITY           SKY/WX    TMP DP  RH WIND       PRES   REMARKS
ATLANTIC *     CLOUDY    16  12  86 E9        30.43F WCI   4          
AUDUBON *      CLOUDY    16  10  79 CALM      30.44F                  
CLARINDA *     CLOUDY    23  14  68 E10       30.44F WCI  12          
COUNCIL BLFS * CLOUDY    14  12  92 E8        30.41F WCI   3          
CRESTON *      CLOUDY    19  14  79 E13       30.44F WCI   7          
HARLAN  *      CLOUDY    14  10  85 VRB3      30.43F                  
LAMONI         CLOUDY    21  13  71 NE10      30.42F WCI  10          
6HR MIN TEMP:   5; 6HR MAX TEMP:  21;                                

RED OAK *      CLOUDY    19  14  79 E9        30.43F WCI   9          
SHENANDOAH *   MOSUNNY   21  14  73 E10       30.42F WCI  10          
$$
 
IAZ047>049-059>061-072>074-084-191900-
   CENTRAL IOWA
  
CITY           SKY/WX    TMP DP  RH WIND       PRES   REMARKS
AMES           CLOUDY    10   5  80 CALM      30.53F                  
6HR MIN TEMP: -12; 6HR MAX TEMP:  10;                                

ANKENY *       CLOUDY    12  10  92 VRB3      30.54F                  
BOONE *        CLOUDY    10  10 100 E6        30.50F FOG     WCI   1  
CHARITON *     CLOUDY    19  12  73 E9        30.48F WCI   9          
DES MOINES     CLOUDY    15   9  76 E6        30.51F WCI   6          
6HR MIN TEMP:  -3; 6HR MAX TEMP:  15; 6HR PCP: TRACE;                

GRINNELL*      FLURRIES  13  11  93 E5        30.55F WCI   5          
KNOXVILLE *    CLOUDY    16  16 100 E6        30.51F WCI   7          
MARSHALLTOWN   CLOUDY     9   5  84 CALM      30.54F                  
6HR MIN TEMP: -16; 6HR MAX TEMP:   9;                                

NEWTON *       CLOUDY    14  14 100 CALM      30.53F                  
PELLA *        CLOUDY    18   9  69 E5        30.54F WCI  11          
PERRY *        FAIR       7   5  93 CALM      30.51F FOG              
$$
 
IAZ004>006-015-016-023>025-035-036-191900-
   NORTH CENTRAL IOWA
  
CITY           SKY/WX    TMP DP  RH WIND       PRES   REMARKS
ALGONA *       SUNNY     12  12 100 SE6       30.47F WCI   3          
CLARION *      SUNNY     14  12  92 SE10      30.51F WCI   1          
ESTHERVILLE    CLOUDY     6   4  91 S6        30.47F WCI  -4          
6HR MIN TEMP: -13; 6HR MAX TEMP:   6;                                

FORT DODGE *   MOSUNNY   13   3  64 E8        30.51F WCI   2          
MASON CITY     CLOUDY    10   6  84 SE7       30.52F WCI  -1          
6HR MIN TEMP: -15; 6HR MAX TEMP:  11;                                

FOREST CITY *  FAIR      14  12  92 SE5       30.50F WCI   6          
IOWA FALLS *   FAIR      14  12  92 SE5       30.53F WCI   6          
$$

IAZ007>011-017>019-026>030-037>042-050>054-066-191900-
   NORTHEAST IOWA
  
CITY           SKY/WX    TMP DP  RH WIND       PRES   REMARKS
CEDAR RAPIDS   FAIR      12   9  87 CALM      30.54F FOG              
6HR MIN TEMP:  -7; 6HR MAX TEMP:  13; 6HR PCP: TRACE;                

CHARLES CITY * FLURRIES  14  10  85 SE3       30.52F                  
CLINTON *      FAIR      22  14  71 NE6       30.58F WCI  14          
DECORAH *      FAIR      14   9  79 VRB3      30.52F                  
DUBUQUE        FAIR      17  12  80 SW3       30.54F                  
6HR MIN TEMP:  -4; 6HR MAX TEMP:  17;                                

OELWEIN *      FAIR      14  12  92 CALM      30.53F                  
WATERLOO       FAIR      11   5  77 E7        30.54F WCI   0          
6HR MIN TEMP: -15; 6HR MAX TEMP:  11; 6HR PCP: TRACE;                

$$
 
IAZ064-065-067-068-078-191900-
   EAST CENTRAL IOWA
  
CITY           SKY/WX    TMP DP  RH WIND       PRES   REMARKS
DAVENPORT      FAIR      20  13  74 NE6       30.58F WCI  12          
6HR MIN TEMP:  -1; 6HR MAX TEMP:  20; 6HR PCP: TRACE;                

IOWA CITY      FAIR      17  10  74 SE6       30.58F WCI   9          
6HR MIN TEMP:  -1; 6HR MAX TEMP:  17;                                

MT. PLEASANT * CLOUDY    27  19  74 N6        30.55F WCI  20          
MUSCATINE *    FAIR      21  14  73 W5        30.58F WCI  15          
QUAD CITIES    FAIR      26  16  65 E8        30.56F WCI  18          
6HR MIN TEMP:   5; 6HR MAX TEMP:  26;                                

$$
 
IAZ062-063-075>077-085>089-095>099-191900-
   SOUTHEAST IOWA
  
CITY           SKY/WX    TMP DP  RH WIND       PRES   REMARKS
BURLINGTON     CLOUDY    28  18  66 SE7       30.54F WCI  21          
6HR MIN TEMP:  13; 6HR MAX TEMP:  28;                                

FAIRFIELD *    CLOUDY    21  14  73 E5        30.53F WCI  15          
KEOKUK *       MOSUNNY   28  21  74 E7G13     30.51F WCI  21          
OSKALOOSA *    FAIR      16  12  84 E3        30.54F                  
OTTUMWA        CLOUDY    14   9  80 NE7       30.53F WCI   4          
6HR MIN TEMP:   2; 6HR MAX TEMP:  14;                                

WASHINGTON *   CLOUDY    16  12  86 NE5       30.55F WCI   9          
$$

ABBREVIATIONS USED IN REMARKS
   TC - TEMPERATURES IN CELSIUS
  WCI - WIND CHILL INDEX
   HX - HEAT INDEX
  VSB - VISIBILITY  
$$